Regional Weather Roundup
Issued by NWS

Home | Current Version | Previous Version | Graphics & Text | Print | Product List | Glossary On
Versions: 1 2 3 4 5 6 7 8 9 10 11 12 13 14 15 16 17 18 19 20 21 22 23 24 25 26 27 28 29 30 31 32 33 34 35 36 37 38 39 40 41 42 43 44 45 46 47 48 49 50
411
ASUS43 KBIS 201510
RWRND

NORTH DAKOTA REGIONAL WEATHER ROUNDUP
NATIONAL WEATHER SERVICE BISMARCK ND
900 AM CST FRI JAN 20 2017

NOTE: "FAIR" INDICATES FEW OR NO CLOUDS BELOW 12,000 FEET WITH NO
SIGNIFICANT WEATHER AND/OR OBSTRUCTIONS TO VISIBILITY.


NDZ001>003-009>011-017-201600-
NORTHWEST NORTH DAKOTA

CITY           SKY/WX    TMP DP  RH WIND       PRES   REMARKS
WILLISTON      FAIR      12  10  92 SW3       29.40S FOG
MINOT          FAIR      21  17  84 E5        29.38R WCI  15
$$

NDZ018>021-031>035-040>046-201600-
SOUTHWEST NORTH DAKOTA

CITY           SKY/WX    TMP DP  RH WIND       PRES   REMARKS
BISMARCK       FOG       24  22  91 W5        29.41F VSB 1/4 WCI  18
DICKINSON      FAIR      24  20  84 W10       29.35S WCI  14
GARRISON         N/A     13  12  96 CALM      29.38S
HETTINGER ARPT CLOUDY    26  22  84 NW12      29.37F WCI  16
$$

NDZ004>008-012>016-024-026-027-054-201600-
NORTHEAST NORTH DAKOTA

CITY           SKY/WX    TMP DP  RH WIND       PRES   REMARKS
GRAND FORKS    FOG       36  34  92 S12       29.50F VSB 3/4
GRND FRKS AFB  CLOUDY    34  34 100 SE9       29.50S FOG
DEVILS LAKE    CLOUDY    34  34 100 SE7       29.45S FOG
$$

NDZ022-023-025-028>030-036>039-047>053-201600-
SOUTHEAST NORTH DAKOTA

CITY           SKY/WX    TMP DP  RH WIND       PRES   REMARKS
FARGO          CLOUDY    36  36 100 SE10      29.50F FOG
JAMESTOWN      FOG       33  33 100 SE14      29.43F VSB 1
$$





USA.gov is the U.S. government's official web portal to all federal, state and local government web resources and services.